Terminal Aerodrome Forecast
Issued by NWS Greer, SC

Home | Current Version | Previous Version | Text Only | Print | Product List | Glossary On
Versions: 1 2 3 4 5 6 7 8 9 10 11 12 13 14 15 16 17 18 19 20
000
FTUS42 KGSP 020900 AAA
TAFGSP
TAF AMD
KGSP 020941Z 0210/0306 00000KT 5SM BR SCT060
      TEMPO 0210/0213 1SM BR
     FM021300 23003KT P6SM SKC
     FM021500 21006KT P6SM FEW060=

USA.gov is the U.S. government's official web portal to all federal, state and local government web resources and services.